Find Starlink 3245

NORAD ID: 50170 Int'l Des: 2021-125 Owner: SPXS Country: US Constellation: starlink operational
LEOCIRCULAR

リアルタイム位置

3D地球を読み込み中...

Starlink 3245について

説明を読み込み中...

次回通過

Passes for default location (London). Set your location on the main map for personalized predictions.

高度履歴

Loading altitude history...

軌道要素

1 50170U 21125Q 26126.99399931 -.00002501 00000-0 -13907-3 0 9996
2 50170 53.2202 347.3815 0001514 94.0748 266.0417 15.08839527245390
Epoch: May 6, 2026 • Age: 16 hours

現在のステータス

高度 543.6 km
速度 7.60 km/s
衛星直下点 45.62°N, 5.3°E
打ち上げ日 Dec 18, 2021
運用期間 4.3 years
タイプ internet

技術仕様

分類 Payload
質量 290.00 kg
乾燥質量 270.00 kg
総質量 290.00 kg
長さ 0.20 m
直径 2.80 m
スパン 9.00 m
形状 Box + pan
製造者 SPXS
バスタイプ Starlink
フェーズステータス In Orbit
所有者/国 SPXS/US

Most Searched